Location: Unspecified
(47.9110°N, 14.3980°E)
Time: 16:58:50
(UTC+00:00)

Tsikada Rocket - Pass Details

Date: 06 August 2020
Orbit: 957 x 1010 km, 82.9° (Epoch: 24 September)

Event Time Altitude Azimuth Distance (km) Brightness Sun altitude
Rises 22:34:24 0° 349° (NNW) 3,745 8.4 -25.3°
Reaches altitude 10° 22:36:58 10° 347° (NNW) 2,786 7.4 -25.3°
Maximum altitude 22:43:19 71° 265° (W) 1,052 4.1 -25.5°
Enters shadow 22:44:38 55° 207° (SSW) 1,177 4.1 -25.5°
